sat.trackr.live / text

‹ back to catalog

COSMOS 2612

NORAD 68762 · 2026-083H

PAYLOAD ACTIVE UNKNOWN

§ Identity

Operator
Country
CIS
Launch date
2026-04-16
Launch site
PLMSC
Launch vehicle
Mass (kg)
RCS (m²)

External: N2YO · Heavens-Above · Gunter

§ Orbital elements

Epoch: 2026-05-24T22:43:01.138080Z

Period
95.56 min
Inclination
97.8499°
Eccentricity
0.0014111
Mean motion
15.06883052 rev/d
Perigee alt
536.0 km
Apogee alt
555.5 km
Semi-major
6,923.9 km
B*
1.3574e-4
RAAN
282.5884°
Arg perigee
126.0214°
Mean anomaly
234.2323°
Rev number
570

§ Raw data

COSMOS 26121 68762U 26083H   26144.94654095  .00001964  00000+0  13574-3 0  99992 68762  97.8499 282.5884 0014111 126.0214 234.2323 15.06883052  5707

JSON: /api/v1/satellites/68762 · /tle

For live sub-satellite position, see the globe view (requires WebGL).

§ Visibility from observer

Set your observer location to see the next 7 days of passes ≥ 10°. The values pass through the URL so the page stays shareable.

No JS? Fill the form by hand. The geolocation button needs JavaScript.